Temperature
9 9 8 8 8 7 7 6 6 5 5 6 5 5 5 4 4 4 3 3 3 2 2 2 1 1 1 0 0 -0 -1 -1 -1 -1 -1 -1 -1 -1
9 9 8 8 7 7 7 6 6 5 5 5 5 4 4 4 3 3 3 2 2 2 1 1 0 0 -0 -0 -1 -1 -1 -2 -2 -2 -2 -2 -2 -2
9 8 8 8 7 7 6 6 6 5 4 4 4 4 3 3 3 2 2 2 1 1 1 0 -0 -1 -1 -1 -1 -2 -2 -2 -2 -3 -3 -3 -3 -3
8 8 8 7 7 6 6 6 5 5 4 4 4 3 3 2 2 1 1 1 0 0 -0 -1 -1 -1 -2 -2 -2 -2 -3 -3 -3 -3 -3 -3 -3 -3
8 7 7 7 6 6 6 5 5 4 3 3 3 2 2 1 1 1 0 -0 -0 -1 -1 -1 -2 -2 -2 -3 -3 -3 -3 -4 -4 -4 -4 -4 -4 -4
8 7 7 6 6 6 5 4 4 3 3 2 2 2 1 1 -0 -0 -1 -1 -1 -1 -2 -2 -2 -3 -3 -3 -3 -4 -4 -4 -5 -5 -5 -4 -4 -4
7 7 6 6 6 5 4 4 3 3 2 2 1 1 0 -0 -1 -1 -2 -2 -2 -2 -3 -3 -3 -3 -4 -4 -4 -4 -5 -5 -5 -5 -5 -5 -5 -5
7 6 6 5 5 4 4 3 3 2 2 1 1 0 -0 -1 -2 -2 -3 -3 -3 -3 -4 -4 -4 -4 -4 -4 -5 -5 -5 -6 -6 -6 -6 -5 -5 -5
6 6 5 5 4 4 3 3 2 2 1 0 -0 -1 -1 -2 -3 -3 -3 -4 -4 -4 -5 -4 -4 -4 -5 -5 -5 -6 -6 -6 -6 -6 -6 -6 -6 -6
6 5 5 4 4 3 3 2 2 1 0 -0 -1 -1 -2 -3 -3 -4 -4 -5 -5 -5 -5 -5 -5 -5 -5 -5 -6 -6 -6 -7 -6 -6 -6 -6 -6 -6
5 4 4 3 3 2 2 1 1 0 -0 -1 -1 -2 -3 -3 -4 -4 -5 -5 -5 -5 -6 -6 -6 -6 -6 -5 -6 -6 -7 -7 -7 -7 -7 -7 -6 -7
4 4 3 3 2 2 1 1 0 -0 -1 -1 -2 -2 -3 -4 -4 -5 -5 -6 -6 -7 -7 -7 -7 -8 -7 -6 -6 -7 -7 -7 -7 -7 -7 -7 -7 -7
4 3 3 2 1 1 0 -0 -1 -1 -2 -2 -3 -3 -4 -4 -5 -5 -6 -6 -7 -7 -8 -8 -8 -8 -9 -8 -7 -7 -7 -7 -7 -7 -7 -7 -7 -7
3 2 2 1 1 0 -0 -1 -1 -2 -3 -3 -3 -4 -4 -5 -5 -6 -6 -7 -7 -8 -8 -9 -9 -9 -9 -9 -9 -8 -8 -8 -8 -7 -7 -7 -7 -7
2 1 1 0 -0 -1 -1 -2 -2 -3 -3 -4 -4 -5 -5 -6 -6 -6 -7 -7 -7 -8 -8 -9 -9 -9 -9 -9 -9 -9 -8 -8 -8 -8 -8 -8 -7 -7
1 0 0 -0 -1 -1 -2 -3 -3 -4 -4 -5 -5 -6 -6 -6 -7 -7 -7 -8 -8 -8 -8 -9 -9 -9 -9 -9 -9 -9 -9 -9 -8 -8 -8 -8 -7 -7
0 -0 -1 -1 -2 -2 -3 -3 -4 -4 -5 -5 -6 -6 -7 -7 -7 -8 -8 -8 -9 -9 -8 -9 -9 -9 -9 -9 -9 -9 -9 -9 -9 -9 -8 -8 -7 -7
-0 -1 -1 -2 -2 -3 -3 -4 -4 -5 -6 -6 -6 -7 -7 -8 -8 -8 -9 -9 -9 -9 -9 -9 -9 -9 -9 -9 -9 -9 -9 -9 -9 -9 -9 -9 -8 -7
-1 -1 -2 -2 -3 -4 -4 -5 -5 -6 -6 -7 -7 -7 -8 -8 -9 -9 -9 -10 -10 -10 -10 -10 -10 -10 -10 -10 -9 -9 -9 -9 -9 -9 -9 -9 -8 -7
-2 -2 -3 -3 -4 -4 -5 -5 -6 -6 -7 -7 -7 -8 -8 -9 -9 -9 -10 -10 -10 -10 -10 -10 -10 -10 -11 -11 -10 -9 -9 -9 -9 -9 -9 -8 -8 -7
-2 -3 -3 -4 -4 -5 -5 -6 -6 -7 -7 -7 -8 -8 -9 -9 -9 -10 -10 -10 -10 -10 -10 -10 -10 -10 -10 -10 -10 -9 -8 -9 -9 -9 -9 -9 -8 -8
-3 -4 -4 -4 -5 -5 -6 -6 -7 -7 -7 -8 -8 -8 -9 -9 -10 -10 -10 -10 -11 -11 -11 -10 -10 -10 -10 -10 -10 -9 -9 -8 -8 -8 -9 -9 -9 -9
-4 -4 -5 -5 -5 -6 -6 -7 -7 -7 -8 -8 -8 -9 -9 -10 -10 -10 -10 -10 -11 -11 -11 -10 -10 -10 -10 -10 -10 -9 -9 -8 -8 -8 -8 -8 -8 -8
Wind_Speed
9 9 7 6 6 6 5 5 5 6 7 5 4 3 3 5 8 7 8 13 15 17 17 17 17 18 19 20 20 20 21 22 22 23 23 24 24 24
7 8 8 6 5 5 5 5 6 6 7 4 4 3 3 4 8 8 9 13 15 17 17 17 18 18 18 19 20 20 21 22 22 23 23 24 24 25
7 8 9 7 6 5 5 5 5 5 9 6 3 2 3 4 5 6 8 8 10 15 16 18 18 17 18 19 19 20 21 22 22 23 23 24 25 25
9 8 8 6 7 5 5 6 6 6 6 8 4 3 4 4 4 4 5 7 8 13 16 17 17 17 18 19 19 20 20 21 21 22 23 24 24 24
9 9 8 7 7 6 5 6 5 4 4 5 5 3 3 3 3 4 5 5 8 11 13 14 15 17 18 18 19 19 20 20 21 21 22 22 23 23
8 8 8 8 8 7 6 6 5 4 4 4 5 4 4 3 2 4 5 4 6 7 9 12 15 17 17 18 18 19 19 19 20 21 22 22 22 22
6 7 7 7 8 7 5 5 5 4 4 4 5 4 4 3 3 3 5 5 6 4 5 7 8 7 10 14 16 17 18 19 20 21 21 21 21 21
7 6 5 6 6 7 7 6 6 5 5 4 4 5 6 5 4 4 4 5 5 3 3 6 5 6 7 9 15 18 18 18 19 20 20 20 21 21
7 5 4 4 4 4 5 6 5 6 7 5 5 6 5 5 4 4 4 5 6 4 3 6 4 6 7 11 16 16 17 17 18 19 20 20 20 20
6 6 6 4 4 4 4 3 3 3 4 3 4 5 5 4 4 4 4 5 5 4 3 5 4 5 7 8 14 14 16 17 18 19 19 19 20 20
5 5 5 5 6 5 4 3 3 3 3 4 4 5 6 6 4 1 2 3 5 4 2 3 3 5 5 5 9 13 15 17 18 18 18 19 19 18
3 4 5 5 6 5 4 4 4 4 2 2 2 3 3 4 5 2 2 3 3 4 2 2 3 3 4 4 4 7 10 14 17 18 18 18 18 11
4 4 4 6 5 5 4 4 5 3 2 1 1 2 2 2 3 2 2 3 3 4 3 2 3 3 4 5 5 5 5 6 8 11 15 17 18 14
5 4 4 6 5 4 3 3 3 1 1 1 1 2 2 3 3 3 3 4 4 6 6 4 3 4 4 6 6 5 5 6 6 6 7 14 16 17
4 5 5 5 3 2 2 2 1 1 1 1 2 3 2 3 2 2 3 4 5 6 6 5 5 5 5 6 6 6 6 6 5 5 7 8 8 8
4 5 5 4 2 2 1 1 1 1 1 2 2 2 1 1 2 2 3 3 3 4 6 7 7 6 5 7 7 8 6 5 6 7 8 8 7 7
6 4 3 2 2 1 1 1 1 1 1 1 1 2 2 2 2 2 2 2 3 4 5 5 6 7 7 7 7 8 7 7 7 7 8 9 8 7
6 4 4 4 4 3 3 2 2 2 2 2 2 2 2 2 3 2 2 3 4 5 5 4 4 5 4 5 8 7 6 6 7 7 7 8 10 8
5 5 4 4 4 4 3 3 3 2 2 2 2 2 2 2 2 3 3 3 4 4 4 4 3 3 6 7 6 6 5 7 7 7 7 7 9 10
4 5 4 4 4 3 3 3 2 2 2 2 2 2 2 2 3 3 3 4 4 4 5 4 3 4 5 6 6 7 10 7 7 8 8 8 8 11
4 4 4 4 3 3 3 3 3 3 3 2 2 2 2 2 3 3 3 6 5 4 5 5 6 10 5 4 6 6 6 10 11 8 8 8 7 5
4 4 3 4 4 4 3 3 3 3 3 2 2 2 2 2 3 3 3 4 4 4 5 6 6 5 2 4 7 8 8 8 11 13 10 8 5 5
4 4 3 4 3 3 3 4 4 3 3 3 3 2 2 2 2 3 3 4 4 4 5 5 5 3 4 4 5 6 8 8 6 7 7 11 14 14
Wind_Direction
217 218 222 225 219 221 217 212 229 269 275 246 251 258 261 268 275 278 276 282 286 288 288 287 287 288 288 289 289 291 292 293 293 293 293 292 292 292
214 216 224 227 223 219 218 219 218 236 265 248 240 252 273 281 288 289 283 290 292 292 291 291 290 290 291 292 292 292 292 292 292 292 292 291 291 290
213 215 224 219 220 222 218 218 223 222 256 270 245 258 258 272 291 291 290 289 292 294 295 295 294 294 295 295 295 294 294 294 294 293 292 292 292 292
214 213 222 217 221 222 219 224 227 221 237 267 271 262 256 267 274 285 298 296 294 295 297 297 296 295 296 297 297 298 298 298 297 295 294 294 293 293
210 211 217 210 223 224 220 225 226 226 225 249 269 260 264 275 285 287 287 289 297 298 299 299 299 298 299 299 299 299 298 298 298 298 297 295 294 294
208 209 210 209 218 219 222 225 221 225 231 247 263 269 267 271 272 278 289 283 291 295 295 300 300 300 299 301 301 300 300 299 299 298 298 298 296 294
205 208 211 212 217 215 219 217 209 222 234 245 258 267 266 268 269 268 283 292 285 276 287 293 296 293 298 299 300 298 299 300 300 298 298 297 298 297
203 208 210 211 218 225 234 229 216 220 228 236 251 257 261 258 263 273 279 299 295 278 282 287 282 281 287 293 296 299 301 301 302 301 300 299 298 297
198 197 203 208 204 202 229 238 243 246 239 231 242 250 258 254 256 266 264 268 273 276 282 278 272 277 288 295 300 302 305 307 307 305 304 302 301 299
193 192 193 198 203 198 195 208 230 245 250 247 234 245 250 249 237 246 257 272 276 278 266 273 280 280 293 293 295 302 310 313 312 310 307 306 305 303
187 185 187 197 212 205 191 205 231 255 267 269 274 283 293 296 295 291 301 305 294 284 256 262 284 298 288 276 288 302 310 315 315 314 314 313 311 310
178 187 196 201 210 205 194 197 220 238 242 270 296 311 312 306 307 275 239 266 284 280 260 269 279 310 301 277 278 296 303 309 314 315 316 316 315 315
182 188 200 200 205 210 213 206 228 228 192 192 254 289 301 295 291 284 251 235 253 262 267 271 272 270 266 292 294 284 284 295 306 308 313 313 313 312
184 188 194 195 202 210 221 230 231 203 140 171 249 269 275 279 281 283 280 269 254 255 264 258 257 267 279 289 293 295 296 291 291 295 300 309 310 307
177 183 185 184 179 189 216 216 185 154 175 222 249 258 259 267 279 291 296 297 295 287 281 269 260 268 264 274 284 289 300 297 287 295 302 303 298 299
157 164 166 161 151 177 192 187 164 193 211 227 251 267 278 283 287 285 291 304 305 297 291 287 277 266 269 269 273 282 281 281 298 303 303 299 293 287
142 133 139 152 165 176 183 191 187 194 243 248 248 266 276 285 291 293 285 294 288 291 298 297 295 284 263 262 272 272 279 283 285 298 305 304 295 285
147 159 176 184 193 198 202 211 216 214 223 230 242 254 265 276 286 291 288 283 286 287 290 294 310 320 314 280 245 261 274 282 293 297 294 298 299 295
167 178 189 196 201 202 204 210 222 221 214 217 228 242 255 266 275 284 289 290 288 287 288 291 298 308 314 313 291 259 272 294 300 299 291 288 291 295
178 185 192 195 197 200 204 210 215 218 217 216 223 235 244 257 268 275 281 283 290 292 296 297 287 285 285 290 290 290 290 286 292 297 297 293 283 284
187 190 190 192 196 199 203 206 209 219 220 217 225 233 239 244 258 268 278 295 297 290 296 295 287 301 290 282 290 290 287 294 297 295 299 300 300 296
188 188 189 192 195 198 200 203 210 218 215 220 228 236 239 238 249 263 272 280 281 279 282 289 297 304 286 279 291 295 299 306 310 308 298 290 296 297
187 186 190 193 194 196 198 203 209 218 216 216 223 228 233 241 248 256 265 271 279 287 295 300 308 302 284 276 285 293 298 307 312 316 310 312 309 299
Height
1481 1482 1481 1482 1482 1482 1481 1480 1479 1473 1470 1470 1470 1469 1468 1466 1464 1462 1460 1457 1455 1453 1450 1448 1446 1443 1441 1439 1437 1434 1432 1430 1428 1425 1423 1422 1420 1418
1475 1475 1475 1475 1475 1475 1474 1474 1472 1470 1465 1463 1463 1463 1461 1459 1458 1455 1453 1451 1448 1445 1443 1441 1438 1436 1433 1431 1429 1426 1424 1422 1420 1418 1416 1414 1412 1410
1468 1469 1468 1469 1469 1468 1468 1467 1465 1464 1460 1457 1457 1456 1454 1452 1450 1448 1446 1443 1441 1438 1436 1433 1431 1428 1426 1423 1421 1419 1416 1414 1412 1410 1408 1406 1404 1402
1462 1462 1462 1462 1462 1462 1461 1460 1458 1457 1455 1451 1450 1449 1448 1446 1443 1441 1439 1436 1434 1431 1429 1426 1423 1421 1418 1416 1414 1411 1409 1406 1404 1402 1400 1398 1396 1394
1455 1455 1456 1456 1455 1455 1454 1453 1452 1451 1449 1446 1443 1442 1441 1439 1436 1434 1432 1429 1427 1424 1421 1418 1416 1414 1411 1409 1406 1403 1401 1398 1396 1394 1392 1390 1388 1386
1449 1449 1449 1449 1449 1448 1447 1447 1446 1444 1443 1440 1438 1436 1434 1432 1430 1427 1424 1422 1419 1417 1414 1412 1409 1407 1404 1401 1399 1396 1393 1391 1389 1387 1385 1383 1380 1378
1442 1443 1443 1443 1442 1442 1441 1440 1439 1438 1436 1434 1432 1430 1428 1426 1424 1421 1418 1415 1412 1410 1407 1405 1403 1400 1397 1394 1391 1388 1386 1384 1382 1379 1377 1375 1373 1371
1435 1436 1436 1436 1436 1436 1435 1434 1433 1432 1430 1428 1426 1424 1421 1420 1418 1415 1413 1409 1405 1404 1401 1398 1397 1393 1390 1387 1384 1382 1379 1377 1375 1373 1370 1368 1366 1364
1429 1429 1429 1429 1429 1429 1428 1428 1427 1426 1425 1423 1420 1418 1416 1414 1412 1410 1407 1404 1401 1399 1396 1391 1390 1386 1384 1380 1378 1376 1373 1371 1369 1366 1364 1361 1359 1357
1423 1423 1423 1423 1423 1423 1422 1421 1420 1420 1418 1417 1415 1413 1411 1409 1407 1405 1402 1399 1396 1394 1391 1386 1383 1380 1378 1375 1373 1370 1368 1365 1363 1360 1358 1355 1353 1350
1417 1417 1417 1417 1417 1417 1416 1415 1414 1413 1412 1411 1409 1408 1406 1404 1402 1400 1396 1393 1390 1388 1386 1383 1378 1374 1371 1369 1368 1365 1362 1360 1357 1355 1352 1349 1347 1344
1410 1411 1411 1411 1411 1411 1410 1409 1408 1407 1406 1404 1403 1402 1400 1398 1397 1394 1392 1389 1386 1383 1381 1378 1375 1371 1366 1363 1362 1360 1358 1355 1352 1349 1347 1344 1341 1339
1404 1404 1405 1405 1406 1405 1404 1403 1402 1402 1400 1399 1397 1396 1395 1393 1391 1389 1387 1385 1382 1379 1378 1375 1371 1368 1366 1360 1357 1355 1353 1350 1347 1344 1342 1339 1336 1334
1398 1399 1399 1400 1400 1400 1399 1398 1397 1396 1395 1393 1392 1390 1389 1388 1386 1384 1382 1380 1378 1376 1374 1371 1368 1365 1362 1357 1353 1350 1348 1346 1342 1339 1336 1334 1331 1329
1393 1394 1394 1394 1394 1394 1394 1393 1392 1391 1390 1388 1387 1386 1384 1383 1381 1380 1378 1376 1374 1372 1369 1367 1364 1361 1359 1355 1350 1346 1343 1340 1338 1335 1331 1328 1325 1323
1387 1388 1389 1389 1389 1389 1389 1388 1387 1386 1385 1384 1383 1381 1380 1378 1377 1375 1373 1371 1369 1367 1365 1363 1360 1357 1354 1351 1347 1343 1340 1337 1334 1331 1327 1324 1321 1319
1382 1382 1383 1383 1383 1383 1383 1383 1382 1382 1381 1380 1378 1377 1376 1374 1373 1371 1369 1367 1365 1362 1360 1358 1356 1353 1350 1347 1343 1340 1337 1334 1331 1327 1323 1319 1316 1314
1377 1377 1377 1378 1378 1378 1378 1378 1378 1377 1376 1375 1374 1373 1372 1370 1369 1367 1366 1363 1361 1359 1357 1354 1351 1348 1345 1342 1340 1336 1333 1330 1327 1324 1320 1315 1311 1309
1371 1372 1372 1373 1373 1373 1373 1373 1373 1372 1372 1371 1370 1369 1368 1366 1365 1363 1362 1360 1358 1356 1354 1352 1349 1346 1342 1338 1336 1334 1330 1326 1323 1319 1316 1312 1308 1305
1366 1367 1367 1368 1368 1369 1369 1369 1368 1368 1367 1366 1365 1365 1363 1362 1361 1360 1358 1356 1355 1352 1350 1349 1346 1344 1341 1338 1334 1330 1328 1324 1319 1315 1311 1308 1305 1302
1361 1362 1363 1363 1364 1364 1364 1364 1364 1363 1363 1362 1361 1360 1359 1358 1357 1356 1355 1353 1352 1350 1347 1345 1344 1342 1339 1336 1332 1327 1324 1322 1318 1313 1309 1305 1301 1297
1357 1357 1358 1359 1359 1360 1359 1359 1359 1359 1358 1357 1357 1356 1355 1354 1353 1352 1351 1350 1349 1347 1345 1343 1341 1339 1336 1333 1329 1325 1321 1318 1315 1312 1308 1305 1301 1297
1353 1353 1354 1354 1355 1355 1355 1354 1354 1354 1353 1353 1353 1352 1351 1351 1350 1349 1348 1347 1346 1344 1342 1340 1338 1336 1333 1330 1327 1323 1319 1316 1312 1309 1306 1303 1300 1297